Weather History for Cody, WY

Change the Weather History Date:

Saturday, April 6, 2013

  Actual Average Record
Temperature  
Mean Temperature 48 °F -  
Max Temperature 55 °F 57 °F 78 °F (1930)
Min Temperature 42 °F 31 °F 5 °F (1939)
Degree Days  
Heating Degree Days 16    
Moisture  
Dew Point 28 °F    
Average Humidity 45    
Maximum Humidity 57    
Minimum Humidity 31    
Precipitation  
Precipitation 0.00 in - - ()
Sea Level Pressure  
Sea Level Pressure 29.84 in    
Wind  
Wind Speed 12 mph (West)    
Max Wind Speed 22 mph    
Max Gust Speed 40 mph    
Visibility 10 miles    
Events      
Averages and records for this station are not official NWS values.
T = Trace of Precipitation, MM = Missing Value Source: NWS Daily Summary

Daily Weather History Graph

Daily Weather History Graph

Search for Another Location

Airport:

Trip Planner

Search our weather history database for the weather conditions in past years. The results will help you decide how hot, cold, wet, or windy it might be!

Date:

Astronomy

Apr. 06, 2013 Rise Set
Actual Time 6:47 AM MDT 7:50 PM MDT
Civil Twilight 6:17 AM MDT 8:19 PM MDT
Nautical Twilight 5:42 AM MDT 8:55 PM MDT
Astronomical Twilight 5:04 AM MDT 9:33 PM MDT
Moon 4:41 AM MDT (4/6) 4:14 PM MDT (4/6)
Length of Visible Light 14h 02m
Length of Day
13h 02m
Waning Crescent, 14% of the Moon is Illuminated
Apr 6
Waning Crescent
Apr 10
New
Apr 18
First Quarter
Apr 25
Full
May 2
Last Quarter

Hourly Weather History & Observations

Time (MDT) Temp. Windchill Dew Point Humidity Pressure Visibility Wind Dir Wind Speed Gust Speed Precip Events Conditions
12:15 AM 46.4 °F 40.1 °F 30.2 °F 53% 29.87 in 10.0 mi West 15.0 mph 28.8 mph N/A   Mostly Cloudy
12:35 AM 46.4 °F 40.7 °F 30.2 °F 53% 29.88 in 10.0 mi West 12.7 mph 24.2 mph N/A   Scattered Clouds
12:55 AM 46.4 °F 41.9 °F 30.2 °F 53% 29.88 in 10.0 mi West 9.2 mph 18.4 mph N/A   Mostly Cloudy
1:15 AM 46.4 °F 40.1 °F 30.2 °F 53% 29.88 in 10.0 mi West 15.0 mph 27.6 mph N/A   Overcast
1:35 AM 46.4 °F 40.7 °F 30.2 °F 53% 29.89 in 10.0 mi West 12.7 mph 25.3 mph N/A   Overcast
1:55 AM 46.4 °F 41.5 °F 30.2 °F 53% 29.88 in 10.0 mi West 10.4 mph 18.4 mph N/A   Overcast
2:15 AM 46.4 °F 42.4 °F 30.2 °F 53% 29.88 in 10.0 mi West 8.1 mph 19.6 mph N/A   Overcast
2:35 AM 46.4 °F 40.4 °F 28.4 °F 50% 29.87 in 10.0 mi West 13.8 mph 18.4 mph N/A   Overcast
2:55 AM 46.4 °F 40.1 °F 28.4 °F 50% 29.87 in 10.0 mi West 15.0 mph 18.4 mph N/A   Overcast
3:35 AM 46.4 °F 42.4 °F 28.4 °F 50% 29.87 in 10.0 mi WNW 8.1 mph - N/A   Mostly Cloudy
4:16 AM 46.4 °F 43.5 °F 26.6 °F 46% 29.87 in 10.0 mi West 5.8 mph - N/A   Partly Cloudy
4:35 AM 44.6 °F 41.4 °F 26.6 °F 49% 29.86 in 10.0 mi WNW 5.8 mph - N/A   Clear
4:55 AM 46.4 °F 42.9 °F 26.6 °F 46% 29.86 in 10.0 mi NW 6.9 mph - N/A   Clear
5:15 AM 42.8 °F - 26.6 °F 53% 29.86 in 10.0 mi Calm Calm - N/A   Clear
5:35 AM 44.6 °F 43.1 °F 26.6 °F 49% 29.87 in 10.0 mi NNW 3.5 mph - N/A   Mostly Cloudy
5:55 AM 44.6 °F 43.1 °F 26.6 °F 49% 29.86 in 10.0 mi NNW 3.5 mph - N/A   Mostly Cloudy
6:15 AM 44.6 °F 40.2 °F 26.6 °F 49% 29.86 in 10.0 mi NW 8.1 mph - N/A   Partly Cloudy
6:55 AM 44.6 °F - 26.6 °F 49% 29.87 in 10.0 mi Calm Calm - N/A   Clear
7:35 AM 46.4 °F 42.4 °F 28.4 °F 50% 29.87 in 10.0 mi NW 8.1 mph - N/A   Partly Cloudy
7:55 AM 46.4 °F 41.9 °F 26.6 °F 46% 29.87 in 10.0 mi NW 9.2 mph - N/A   Clear
8:15 AM 46.4 °F 40.4 °F 28.4 °F 50% 29.87 in 10.0 mi West 13.8 mph 20.7 mph N/A   Scattered Clouds
8:35 AM 46.4 °F 40.4 °F 26.6 °F 46% 29.87 in 10.0 mi West 13.8 mph 18.4 mph N/A   Scattered Clouds
8:55 AM 48.2 °F - 26.6 °F 43% 29.87 in 10.0 mi WNW 9.2 mph 23.0 mph N/A   Partly Cloudy
9:15 AM 48.2 °F - 26.6 °F 43% 29.86 in 10.0 mi West 6.9 mph - N/A   Partly Cloudy
9:35 AM 48.2 °F - 26.6 °F 43% 29.86 in 10.0 mi West 6.9 mph - N/A   Clear
9:55 AM 48.2 °F - 26.6 °F 43% 29.86 in 10.0 mi WNW 9.2 mph 17.3 mph N/A   Clear
10:15 AM 48.2 °F - 26.6 °F 43% 29.86 in 10.0 mi West 13.8 mph 25.3 mph N/A   Clear
10:35 AM 50.0 °F - 26.6 °F 40% 29.86 in 10.0 mi West 13.8 mph 18.4 mph N/A   Clear
10:55 AM 50.0 °F - 26.6 °F 40% 29.86 in 10.0 mi WSW 12.7 mph 20.7 mph N/A   Scattered Clouds
11:15 AM 51.8 °F - 24.8 °F 35% 29.86 in 10.0 mi West 15.0 mph 21.9 mph N/A   Partly Cloudy
11:35 AM 51.8 °F - 26.6 °F 38% 29.86 in 10.0 mi West 15.0 mph 19.6 mph N/A   Clear
11:55 AM 53.6 °F - 26.6 °F 35% 29.86 in 10.0 mi West 9.2 mph - N/A   Clear
12:35 PM 55.4 °F - 26.6 °F 33% 29.84 in 10.0 mi West 13.8 mph 20.7 mph N/A   Partly Cloudy
12:55 PM 55.4 °F - 26.6 °F 33% 29.82 in 10.0 mi WSW 11.5 mph 23.0 mph N/A   Partly Cloudy
1:15 PM 55.4 °F - 24.8 °F 31% 29.83 in 10.0 mi West 18.4 mph 27.6 mph N/A   Mostly Cloudy
1:35 PM 55.4 °F - 28.4 °F 36% 29.82 in 10.0 mi WSW 13.8 mph 21.9 mph N/A   Overcast
1:55 PM 55.4 °F - 28.4 °F 36% 29.82 in 10.0 mi WSW 21.9 mph 29.9 mph N/A   Scattered Clouds
2:15 PM 55.4 °F - 28.4 °F 36% 29.81 in 10.0 mi WSW 21.9 mph 33.4 mph N/A   Clear
2:35 PM 55.4 °F - 28.4 °F 36% 29.80 in 10.0 mi West 21.9 mph 32.2 mph N/A   Clear
2:55 PM 53.6 °F - 28.4 °F 38% 29.80 in 10.0 mi WSW 16.1 mph 26.5 mph N/A   Clear
3:35 PM 53.6 °F - 28.4 °F 38% 29.79 in 10.0 mi West 17.3 mph 27.6 mph N/A   Clear
3:56 PM 53.6 °F - 28.4 °F 38% 29.78 in 10.0 mi West 15.0 mph 26.5 mph N/A   Clear
4:15 PM 55.4 °F - 28.4 °F 36% 29.78 in 10.0 mi WSW 17.3 mph 28.8 mph N/A   Clear
4:35 PM 55.4 °F - 28.4 °F 36% 29.78 in 10.0 mi WSW 16.1 mph 26.5 mph N/A   Partly Cloudy
4:55 PM 55.4 °F - 28.4 °F 36% 29.78 in 10.0 mi WSW 17.3 mph 28.8 mph N/A   Clear
5:35 PM 53.6 °F - 28.4 °F 38% 29.78 in 10.0 mi WSW 15.0 mph 25.3 mph N/A   Clear
5:55 PM 51.8 °F - 26.6 °F 38% 29.79 in 10.0 mi West 18.4 mph 29.9 mph N/A   Clear
6:15 PM 51.8 °F - 28.4 °F 41% 29.79 in 10.0 mi WSW 18.4 mph 29.9 mph N/A   Partly Cloudy
6:35 PM 51.8 °F - 28.4 °F 41% 29.80 in 10.0 mi WSW 16.1 mph 40.3 mph N/A   Mostly Cloudy
6:55 PM 51.8 °F - 28.4 °F 41% 29.79 in 10.0 mi WSW 15.0 mph 28.8 mph N/A   Mostly Cloudy
7:35 PM 48.2 °F - 28.4 °F 46% 29.80 in 10.0 mi WSW 13.8 mph 29.9 mph N/A   Mostly Cloudy
7:55 PM 48.2 °F - 30.2 °F 50% 29.81 in 10.0 mi WSW 17.3 mph 25.3 mph N/A   Scattered Clouds
8:15 PM 48.2 °F - 30.2 °F 50% 29.81 in 10.0 mi WSW 20.7 mph 27.6 mph N/A   Partly Cloudy
8:35 PM 48.2 °F - 30.2 °F 50% 29.82 in 10.0 mi West 16.1 mph 29.9 mph N/A   Partly Cloudy
8:55 PM 46.4 °F 42.4 °F 30.2 °F 53% 29.82 in 10.0 mi WNW 8.1 mph 17.3 mph N/A   Scattered Clouds
9:15 PM 46.4 °F 41.5 °F 30.2 °F 53% 29.83 in 10.0 mi WNW 10.4 mph - N/A   Clear
9:55 PM 48.2 °F - 28.4 °F 46% 29.82 in 10.0 mi NW 6.9 mph 16.1 mph N/A   Clear
10:15 PM 46.4 °F 45.2 °F 30.2 °F 53% 29.83 in 10.0 mi NW 3.5 mph - N/A   Clear
10:35 PM 44.6 °F 41.4 °F 30.2 °F 57% 29.82 in 10.0 mi North 5.8 mph - N/A   Partly Cloudy
10:55 PM 44.6 °F 43.1 °F 28.4 °F 53% 29.82 in 10.0 mi West 3.5 mph - N/A   Clear
11:15 PM 46.4 °F 45.2 °F 30.2 °F 53% 29.82 in 10.0 mi East 3.5 mph - N/A   Clear
11:35 PM 46.4 °F 41.9 °F 30.2 °F 53% 29.82 in 10.0 mi West 9.2 mph - N/A   Mostly Cloudy
11:55 PM 46.4 °F 42.4 °F 30.2 °F 53% 29.81 in 10.0 mi West 8.1 mph - N/A   Mostly Cloudy